User: anonymous   Login
Location: Unspecified
(0.0000°N, 0.0000°E)
Time: 12:30:10
(UTC+00:00)
Language:

FALCON 9 R/B - Orbit

View from above orbital plane
View from above orbital plane
View from above satellite
View from above satellite

Ground track
Ground track

The orbit data is extracted from the following two-line orbital elements,

1 37253U 10066K   15217.13828441  .00006396  00000-0  61994-3 0  9996
2 37253 034.5179 283.0431 4309787 172.5763 196.8711 06.84199215113688
Epoch (UTC): 05 August 2015 03:19:07
Eccentricity: 0.4309787
inclination: 34.5179°
perigee height: 291 km
apogee height: 10393 km
right ascension of ascending node: 283.0431°
argument of perigee: 172.5763°
revolutions per day: 6.84199215
mean anomaly at epoch: 196.8711°
orbit number at epoch: 11368

The dashed part of the orbit path shows where the satellite is in the earth's shadow,  

DLR